Date,TemperatureHighF,TemperatureAvgF,TemperatureLowF,DewpointHighF,DewpointAvgF,DewpointLowF,HumidityHigh,HumidityAvg,HumidityLow,PressureMaxIn,PressureMinIn,WindSpeedMaxMPH,WindSpeedAvgMPH,GustSpeedMaxMPH,PrecipitationSumIn
2013-8-1,88,77,66,74,69,64,100,79,46,30.12,29.99,4,0,5,0.00
2013-8-2,88,79,71,80,74,69,96,86,73,30.02,29.90,5,0,8,0.00
2013-8-3,86,78,68,78,74,68,100,88,67,30.14,29.92,13,1,16,4.28
2013-8-4,79,75,73,77,74,72,100,96,84,30.14,30.01,4,0,8,0.08
2013-8-5,91,85,73,80,78,72,100,80,63,30.05,29.88,5,1,8,0.22
2013-8-6,94,84,74,79,76,71,94,79,57,29.94,29.83,5,1,8,0.00
2013-8-7,92,82,74,81,77,73,97,83,64,29.98,29.85,7,1,9,0.00
2013-8-8,84,76,68,77,73,68,100,91,71,30.02,29.87,14,1,21,4.33
2013-8-9,83,76,71,75,73,71,100,90,70,30.05,29.94,7,1,10,0.17
2013-8-10,83,76,70,75,72,70,100,87,72,30.12,30.04,5,1,9,0.00
2013-8-11,87,78,71,77,73,70,100,87,64,30.11,30.02,5,0,8,0.00
2013-8-12,84,76,71,77,73,70,100,92,74,30.10,29.97,14,1,19,0.00
2013-8-13,78,73,68,75,72,67,100,95,81,30.08,29.99,4,0,7,0.00
2013-8-14,78,70,61,67,63,60,100,80,55,30.16,30.07,4,1,8,0.00
2013-8-15,77,67,57,62,59,56,100,78,51,30.15,30.03,4,0,8,0.00
2013-8-16,77,68,60,64,61,59,96,80,58,30.14,30.05,4,0,8,0.00
2013-8-17,78,67,55,65,61,54,100,82,57,30.16,30.06,5,0,7,0.00
2013-8-18,82,67,59,70,63,59,100,90,54,30.16,30.07,3,0,4,0.00
2013-8-19,80,67,61,71,65,61,100,92,65,30.14,30.03,4,0,4,0.00
2013-8-20,84,69,62,72,65,62,100,88,53,30.12,30.04,4,0,6,0.00
2013-8-21,87,70,62,72,66,62,100,88,53,30.14,30.06,6,0,11,0.00
2013-8-22,85,71,64,74,68,63,100,91,66,30.14,30.03,4,0,7,0.00
2013-8-23,82,72,66,74,70,66,100,93,72,30.11,30.03,2,0,3,0.00
2013-8-24,73,71,69,70,70,69,100,97,90,30.13,30.07,1,0,2,0.00
2013-8-25,91,79,69,75,72,68,100,80,48,30.23,30.15,4,0,6,0.00
2013-8-26,91,78,69,76,71,68,100,81,52,30.23,30.12,3,0,5,0.00
2013-8-27,88,78,64,74,69,63,100,74,49,30.16,30.05,8,1,11,0.00
2013-8-28,90,78,66,75,70,65,100,81,51,30.11,30.04,7,1,12,0.00
2013-8-29,93,80,68,76,71,68,100,78,47,30.10,30.01,7,1,9,0.00
2013-8-30,93,81,70,78,72,69,100,77,47,30.04,29.91,8,1,12,0.00
2013-8-31,95,82,69,80,72,68,100,76,45,29.95,29.84,8,1,11,0.00